When you browse on this site, cookies collect data to enhance your experience and personalize the content and advertising you see.
Visit our Privacy Policy to learn more. By continuing to use the site, you agree to this use of cookies and data.
  • In Romania
  • List of Countries
  • For 7 days
  • Water Temperature
  • Satellite Maps
  • Weather Map
  • Weather Widgets
  • user-avatar
    Login

    Hourly Weather Concord

    Today, 15 December, Saturday

    Time Temperature Precipitation Wind Pressure Humidity
    00:00 +2°C° 0 mm 3 mps 757 mmHg 96%
    01:00 +3°C° 0 mm 3 mps 757 mmHg 95%
    02:00 +3°C° 0 mm 3 mps 756 mmHg 94%
    03:00 +4°C° 0 mm 2 mps 756 mmHg 93%
    04:00 +4°C° 0 mm 2 mps 756 mmHg 93%
    05:00 +3°C° 0 mm 2 mps 756 mmHg 93%
    06:00 +3°C° 0 mm 2 mps 756 mmHg 93%
    07:00 +4°C° 0 mm 1 mps 757 mmHg 93%
    08:00 +5°C° 0 mm 1 mps 757 mmHg 90%
    09:00 +6°C° 0 mm 1 mps 757 mmHg 87%
    10:00 +7°C° 0 mm 1 mps 757 mmHg 84%
    11:00 +7°C° 0 mm 2 mps 757 mmHg 80%
    12:00 +7°C° 0 mm 2 mps 757 mmHg 76%
    13:00 +8°C° 0 mm 2 mps 757 mmHg 72%
    14:00 +6°C° 0 mm 2 mps 757 mmHg 78%
    15:00 +5°C° 0 mm 2 mps 757 mmHg 83%
    16:00 +3°C° 0 mm 2 mps 757 mmHg 89%
    17:00 +3°C° 0 mm 1 mps 757 mmHg 90%
    18:00 +2°C° 0 mm 1 mps 758 mmHg 91%
    19:00 +1°C° 0 mm 1 mps 758 mmHg 92%
    20:00 +1°C° 0 mm 1 mps 758 mmHg 92%
    21:00 +1°C° 0 mm 1 mps 759 mmHg 91%
    22:00 0°C° 0 mm 1 mps 759 mmHg 91%
    23:00 0°C° 0 mm 1 mps 759 mmHg 91%

    Tomorrow, 16 December, Sunday

    Time Temperature Precipitation Wind Pressure Humidity
    00:00 0°C° 0 mm 1 mps 759 mmHg 90%
    01:00 0°C° 0 mm 1 mps 759 mmHg 90%
    02:00 0°C° 0 mm 1 mps 759 mmHg 90%
    03:00 -1°C° 0 mm 1 mps 759 mmHg 90%
    04:00 -1°C° 0 mm 1 mps 759 mmHg 90%
    05:00 -2°C° 0 mm 2 mps 758 mmHg 88%
    06:00 -2°C° 0 mm 2 mps 758 mmHg 87%
    07:00 -2°C° 0 mm 3 mps 757 mmHg 85%
    08:00 -1°C° 0 mm 3 mps 758 mmHg 84%
    09:00 +1°C° 0 mm 2 mps 758 mmHg 83%
    10:00 +1°C° 0 mm 2 mps 758 mmHg 83%
    11:00 +1°C° 0.1 mm 2 mps 757 mmHg 83%
    12:00 +1°C° 0.1 mm 2 mps 756 mmHg 83%
    13:00 +1°C° 0.1 mm 2 mps 755 mmHg 83%
    14:00 0°C° 0 mm 3 mps 755 mmHg 83%
    15:00 0°C° 0 mm 3 mps 754 mmHg 84%
    16:00 0°C° 0 mm 3 mps 753 mmHg 84%
    17:00 0°C° 0 mm 3 mps 753 mmHg 84%
    18:00 0°C° 0 mm 3 mps 753 mmHg 84%
    19:00 0°C° 0 mm 3 mps 753 mmHg 84%
    20:00 0°C° 0.1 mm 3 mps 752 mmHg 85%
    21:00 0°C° 0.1 mm 3 mps 751 mmHg 86%
    22:00 0°C° 0.1 mm 3 mps 751 mmHg 87%
    23:00 0°C° 0.5 mm 3 mps 750 mmHg 88%

    Day after tomorrow, 17 December, Monday

    Time Temperature Precipitation Wind Pressure Humidity
    00:00 0°C° 0.5 mm 3 mps 749 mmHg 89%
    01:00 0°C° 0.5 mm 3 mps 748 mmHg 90%
    02:00 0°C° 0.4 mm 3 mps 747 mmHg 90%
    03:00 -1°C° 0.4 mm 3 mps 747 mmHg 91%
    04:00 -1°C° 0.4 mm 3 mps 746 mmHg 91%
    05:00 -1°C° 0.2 mm 2 mps 745 mmHg 91%
    06:00 -1°C° 0.2 mm 2 mps 745 mmHg 92%
    07:00 -1°C° 0.2 mm 2 mps 745 mmHg 92%
    08:00 +1°C° 0 mm 2 mps 744 mmHg 90%
    09:00 +2°C° 0 mm 1 mps 744 mmHg 89%
    10:00 +3°C° 0 mm 1 mps 744 mmHg 87%
    11:00 +3°C° 0 mm 1 mps 743 mmHg 85%
    12:00 +3°C° 0 mm 2 mps 742 mmHg 83%
    13:00 +4°C° 0 mm 2 mps 741 mmHg 82%
    14:00 +3°C° 0 mm 2 mps 741 mmHg 83%
    15:00 +3°C° 0 mm 2 mps 741 mmHg 84%
    16:00 +2°C° 0 mm 2 mps 740 mmHg 86%
    17:00 +1°C° 0.1 mm 3 mps 741 mmHg 83%
    18:00 -1°C° 0.1 mm 4 mps 741 mmHg 81%
    19:00 -1°C° 0.1 mm 5 mps 741 mmHg 78%
    20:00 -2°C° 0 mm 6 mps 741 mmHg 77%
    21:00 -3°C° 0 mm 6 mps 741 mmHg 75%
    22:00 -4°C° 0 mm 6 mps 742 mmHg 74%
    23:00 -5°C° 0 mm 6 mps 742 mmHg 72%

    18 December, Tuesday

    Time Temperature Precipitation Wind Pressure Humidity
    00:00 -7°C° 0 mm 7 mps 743 mmHg 70%
    01:00 -8°C° 0 mm 7 mps 743 mmHg 68%
    02:00 -8°C° 0 mm 7 mps 744 mmHg 67%
    03:00 -9°C° 0 mm 7 mps 744 mmHg 65%
    04:00 -11°C° 0 mm 7 mps 745 mmHg 64%
    05:00 -11°C° 0 mm 7 mps 745 mmHg 63%
    06:00 -11°C° 0 mm 7 mps 746 mmHg 63%
    07:00 -11°C° 0 mm 7 mps 747 mmHg 62%
    08:00 -11°C° 0 mm 7 mps 748 mmHg 60%
    09:00 -9°C° 0 mm 7 mps 748 mmHg 58%
    10:00 -9°C° 0 mm 7 mps 749 mmHg 56%
    11:00 -9°C° 0 mm 7 mps 749 mmHg 55%
    12:00 -8°C° 0 mm 7 mps 749 mmHg 54%
    13:00 -8°C° 0 mm 7 mps 749 mmHg 53%
    14:00 -9°C° 0 mm 7 mps 749 mmHg 56%
    15:00 -9°C° 0 mm 6 mps 750 mmHg 58%
    16:00 -10°C° 0 mm 6 mps 750 mmHg 60%
    17:00 -10°C° 0 mm 5 mps 751 mmHg 62%
    18:00 -10°C° 0 mm 5 mps 752 mmHg 63%
    19:00 -10°C° 0 mm 4 mps 752 mmHg 64%
    20:00 -10°C° 0 mm 4 mps 753 mmHg 65%
    21:00 -10°C° 0 mm 4 mps 753 mmHg 66%
    22:00 -10°C° 0 mm 4 mps 753 mmHg 66%
    23:00 -10°C° 0 mm 4 mps 753 mmHg 66%

    19 December, Wednesday

    Time Temperature Precipitation Wind Pressure Humidity
    00:00 -10°C° 0 mm 4 mps 753 mmHg 65%
    01:00 -10°C° 0 mm 4 mps 753 mmHg 64%
    02:00 -9°C° 0 mm 3 mps 754 mmHg 64%
    03:00 -9°C° 0 mm 3 mps 754 mmHg 64%
    04:00 -8°C° 0 mm 2 mps 754 mmHg 64%
    05:00 -8°C° 0 mm 2 mps 754 mmHg 65%
    06:00 -8°C° 0 mm 2 mps 754 mmHg 66%
    07:00 -8°C° 0 mm 2 mps 754 mmHg 66%
    08:00 -6°C° 0 mm 2 mps 754 mmHg 61%
    09:00 -5°C° 0 mm 2 mps 754 mmHg 56%
    10:00 -4°C° 0 mm 2 mps 754 mmHg 51%
    11:00 -2°C° 0 mm 2 mps 753 mmHg 50%
    12:00 -1°C° 0 mm 2 mps 753 mmHg 49%
    13:00 +2°C° 0 mm 2 mps 752 mmHg 48%
    14:00 +1°C° 0 mm 2 mps 752 mmHg 54%
    15:00 +1°C° 0 mm 1 mps 752 mmHg 60%
    16:00 +1°C° 0 mm 1 mps 752 mmHg 66%
    17:00 0°C° 0 mm 1 mps 752 mmHg 69%
    18:00 0°C° 0 mm 1 mps 752 mmHg 72%
    19:00 -1°C° 0 mm 1 mps 752 mmHg 75%
    20:00 -1°C° 0 mm 1 mps 752 mmHg 75%
    21:00 -1°C° 0 mm 1 mps 752 mmHg 75%
    22:00 -1°C° 0 mm 1 mps 752 mmHg 76%
    23:00 -1°C° 0 mm 1 mps 752 mmHg 76%

    20 December, Thursday

    Time Temperature Precipitation Wind Pressure Humidity
    00:00 -1°C° 0 mm 1 mps 752 mmHg 76%
    01:00 -1°C° 0 mm 1 mps 752 mmHg 76%
    02:00 -1°C° 0 mm 1 mps 752 mmHg 77%
    03:00 -1°C° 0 mm 1 mps 752 mmHg 78%
    04:00 -1°C° 0 mm 1 mps 752 mmHg 78%
    05:00 -1°C° 0 mm 1 mps 752 mmHg 78%
    06:00 -1°C° 0 mm 1 mps 753 mmHg 78%
    07:00 -1°C° 0 mm 1 mps 753 mmHg 78%
    08:00 0°C° 0 mm 1 mps 753 mmHg 72%
    09:00 +2°C° 0 mm 1 mps 753 mmHg 67%
    10:00 +4°C° 0 mm 1 mps 753 mmHg 61%
    11:00 +5°C° 0 mm 1 mps 753 mmHg 59%
    12:00 +6°C° 0 mm 1 mps 752 mmHg 58%
    13:00 +7°C° 0 mm 1 mps 752 mmHg 56%
    14:00 +6°C° 0 mm 1 mps 752 mmHg 62%
    15:00 +5°C° 0 mm 1 mps 752 mmHg 69%
    16:00 +4°C° 0 mm 1 mps 752 mmHg 76%
    17:00 +3°C° 0 mm 1 mps 753 mmHg 80%
    18:00 +3°C° 0 mm 1 mps 753 mmHg 84%
    19:00 +2°C° 0 mm 1 mps 753 mmHg 88%
    20:00 +2°C° 0 mm 1 mps 753 mmHg 90%
    21:00 +2°C° 0 mm 1 mps 753 mmHg 92%
    22:00 +3°C° 0 mm 1 mps 753 mmHg 94%
    23:00 +3°C° 0.2 mm 1 mps 752 mmHg 95%
    Show more